Terminal Aerodrome Forecast
Issued by NWS Buffalo, NY

Home | Current Version | Previous Version | Text Only | Print | Product List | Glossary On
Versions: 1 2 3 4 5 6 7 8 9 10 11 12 13 14 15 16 17 18 19 20 21 22 23 24 25 26
000
FTUS41 KBUF 220500
TAFROC
TAF
KROC 220534Z 2206/2306 00000KT P6SM SCT080
     FM220800 00000KT 3SM BR SCT025
     FM220900 00000KT 1/2SM FG SCT004 SCT020
     FM221200 VRB03KT 3SM BR BKN030
     FM221600 VRB04KT P6SM BKN035
     FM230200 VRB03KT P6SM SCT110=

USA.gov is the U.S. government's official web portal to all federal, state and local government web resources and services.